Regional Weather Roundup
Issued by NWS Charleston, WV

Home | Current Version | Previous Version | Graphics & Text | Print | Product List | Glossary On
Versions: 1 2 3 4 5 6 7 8 9 10 11 12 13 14 15 16 17 18 19 20 21 22 23 24 25 26 27
000
ASUS41 KRLX 162110
RWRRLX
West Virginia Regional Weather Roundup
National Weather Service Charleston WV
500 PM EDT WED APR 16 2014

Note: "fair" indicates few or no clouds below 12,000 feet with no
significant weather and/or obstructions to visibility.

WVZ003-162200-
Northern Panhandle of West Virginia

CITY           SKY/WX    TMP DP  RH WIND       PRES   REMARKS
WHEELING       SUNNY     42  13  30 VRB6      30.39F
$$

WVZ009-162200-
Northwest West Virginia

CITY           SKY/WX    TMP DP  RH WIND       PRES   REMARKS
PARKERSBURG    SUNNY     49  18  29 NE10      30.39F
$$

WVZ006-162200-
Western West Virginia

CITY           SKY/WX    TMP DP  RH WIND       PRES   REMARKS
HUNTINGTON     SUNNY     50  19  29 CALM      30.32F
$$

WVZ015-162200-
West Central West Virginia

CITY           SKY/WX    TMP DP  RH WIND       PRES   REMARKS
CHARLESTON     MOSUNNY   52  19  27 VRB6      30.32F
$$

WVZ031-162200-
North Central West Virginia

CITY           SKY/WX    TMP DP  RH WIND       PRES   REMARKS
CLARKSBURG     SUNNY     45  15  30 MISG      30.38F
MORGANTOWN     SUNNY     47  18  31 N8        30.39F
$$

WVZ035-042-045-162200-
South Central West Virginia

CITY           SKY/WX    TMP DP  RH WIND       PRES   REMARKS
BECKLEY        SUNNY     49  19  30 SE10      30.29F
BLUEFIELD      SUNNY     51  16  24 VRB6      30.28S
LEWISBURG      SUNNY     49  15  25 S5        30.30S
$$

WVZ047-162200-
Northern Mountains of West Virginia

CITY           SKY/WX    TMP DP  RH WIND       PRES   REMARKS
ELKINS         SUNNY     48  20  32 VRB6      30.33F
$$

WVZ052-162200-
Eastern Panhandle of West Virginia

CITY           SKY/WX    TMP DP  RH WIND       PRES   REMARKS
MARTINSBURG    SUNNY     48  13  24 NE10      30.43F
PETERSBURG     SUNNY     52  24  32 SW6       30.40S
$$



USA.gov is the U.S. government's official web portal to all federal, state and local government web resources and services.